{"data":{"norad_id":59637,"intl_designator":"2024-082G","name":"STARLINK-31791","alt_names":[],"object_type":"PAYLOAD","status":"ACTIVE","operator":null,"country":"US","launch_date":"2024-05-03","launch_site_code":"AFETR","launch_vehicle":null,"mission":null,"orbit_class":"UNKNOWN","rcs_meters":null,"size_class":null,"mass_kg":null,"dimensions":null,"purposes":["comms"],"wikipedia_slug":null,"has_3d_model":false,"image_url":null,"decayed_at":null,"tle_current":{"epoch":"2026-09-20T23:49:08.307264Z","epoch_age_seconds":125568,"freshness":"FRESH","line1":"1 59637U 24082G   26263.99245726  .00000235  00000+0  18054-4 0  9990","line2":"2 59637  43.0034 116.6101 0001417 265.8581  94.2109 15.27577974134681","mean_motion":15.27577974,"eccentricity":0.0001417,"inclination_deg":43.0034,"raan_deg":116.6101,"arg_perigee_deg":265.8581,"mean_anomaly_deg":94.2109,"bstar":1.8054e-5,"rev_number":13468,"period_min":94.266873737995,"perigee_km":482.08293168976,"apogee_km":484.02739354865,"semimajor_km":6861.1921626192,"source":"CELESTRAK","updated_at":"2026-09-22T09:00:49.018246Z"}}}